FW1086 Weather Reports


Display with metric or nautical units.
time (UTC)temp
F
wind
direction
speed
MPH
gust
MPH
rain 1hr
in
rain 24hr
in
rain mn
in
humidity
%
barometer
mb
20190325160018 46 353 2.0 7.0 0.00 0.00 0.00 22 1018.4
20190325155018 45 345 2.0 12.0 0.00 0.00 0.00 23 1018.3
20190325154018 44 327 4.0 12.0 0.00 0.00 0.00 24 1018.4
20190325153018 44 325 3.0 10.0 0.00 0.00 0.00 22 1018.5
20190325152019 44 6 2.0 10.0 0.00 0.00 0.00 21 1018.4
20190325151018 43 337 4.0 16.0 0.00 0.00 0.00 22 1018.5
20190325150018 43 331 4.0 16.0 0.00 0.00 0.00 22 1018.5
20190325145018 42 358 3.0 9.0 0.00 0.00 0.00 22 1018.6
20190325144020 42 315 3.0 11.0 0.00 0.00 0.00 24 1018.6
20190325143020 42 341 2.0 11.0 0.00 0.00 0.00 25 1018.5
20190325142020 41 9 3.0 12.0 0.00 0.00 0.00 27 1018.6
20190325141020 40 345 4.0 12.0 0.00 0.00 0.00 29 1018.6
20190325140022 39 340 3.0 12.0 0.00 0.00 0.00 35 1018.6
20190325135020 39 335 3.0 12.0 0.00 0.00 0.00 36 1018.6
20190325134018 39 20 3.0 8.0 0.00 0.00 0.00 36 1018.6
20190325133020 39 29 2.0 10.0 0.00 0.00 0.00 37 1018.4
20190325132020 38 350 3.0 13.0 0.00 0.00 0.00 37 1018.4
20190325131020 38 353 5.0 13.0 0.00 0.00 0.00 33 1018.2
20190325130020 39 351 4.0 12.0 0.00 0.00 0.00 32 1018.0
20190325125020 39 20 3.0 11.0 0.00 0.00 0.00 43 1017.9
20190325124020 39 345 2.0 9.0 0.00 0.00 0.00 56 1017.7
20190325123018 39 355 2.0 9.0 0.00 0.00 0.00 56 1017.7
20190325122020 39 20 2.0 8.0 0.00 0.00 0.00 58 1017.5
20190325121020 39 3 2.0 9.0 0.00 0.00 0.00 59 1017.2
20190325120020 39 357 2.0 9.0 0.00 0.00 0.00 59 1017.0
20190325115020 39 351 2.0 7.0 0.00 0.00 0.00 59 1016.9
20190325114020 39 19 2.0 7.0 0.00 0.00 0.00 60 1017.0
20190325113020 39 351 1.0 8.0 0.00 0.00 0.00 61 1016.9
20190325112020 39 7 1.0 8.0 0.00 0.00 0.00 61 1016.9
20190325111020 39 39 2.0 8.0 0.00 0.00 0.00 60 1016.7
20190325110020 39 60 0.0 5.0 0.00 0.00 0.00 60 1016.5
20190325105020 39 17 1.0 7.0 0.00 0.00 0.00 59 1016.3
20190325104020 40 31 1.0 7.0 0.00 0.00 0.00 57 1016.1
20190325103020 40 36 1.0 8.0 0.00 0.00 0.00 56 1016.0
20190325102020 40 39 2.0 9.0 0.00 0.00 0.00 54 1015.8
20190325101020 41 24 2.0 9.0 0.00 0.00 0.00 51 1015.5
20190325100020 41 352 2.0 9.0 0.00 0.00 0.00 48 1015.1
20190325095020 40 0.0 1.0 0.00 0.00 0.00 47 1014.5
20190325094020 40 303 0.0 1.0 0.00 0.00 0.00 46 1014.3
20190325093020 41 303 0.0 1.0 0.00 0.00 0.00 45 1014.2
20190325092020 41 0.0 0.0 0.00 0.00 0.00 43 1014.2
20190325091020 42 0.0 0.0 0.00 0.00 0.00 41 1014.1
20190325090018 42 0.0 1.0 0.00 0.00 0.00 41 1014.2
20190325085020 43 303 0.0 1.0 0.00 0.00 0.00 39 1014.2
20190325084020 43 0.0 2.0 0.00 0.00 0.00 39 1014.2
20190325083020 43 303 0.0 2.0 0.00 0.00 0.00 38 1014.2
20190325082020 43 303 0.0 3.0 0.00 0.00 0.00 38 1014.1
20190325081020 44 303 0.0 3.0 0.00 0.00 0.00 37 1014.2
20190325080020 43 305 0.0 2.0 0.00 0.00 0.00 38 1014.1
20190325075020 43 305 0.0 2.0 0.00 0.00 0.00 38 1014.1
20190325074020 43 305 0.0 2.0 0.00 0.00 0.00 38 1014.0
20190325073021 43 305 0.0 2.0 0.00 0.00 0.00 39 1013.9
20190325072020 43 305 0.0 2.0 0.00 0.00 0.00 40 1013.9
20190325071020 43 305 0.0 2.0 0.00 0.00 0.00 39 1014.1
20190325070020 43 0.0 2.0 0.00 0.00 0.00 39 1014.0
20190325065020 44 305 0.0 2.0 0.00 0.00 0.00 38 1014.1
20190325064020 44 305 0.0 1.0 0.00 0.00 0.00 38 1014.1
20190325063019 44 305 0.0 1.0 0.00 0.00 0.00 38 1014.1
20190325062020 44 305 0.0 1.0 0.00 0.00 0.00 38 1014.1
20190325061019 44 0.0 1.0 0.00 0.00 0.00 38 1014.2
20190325060020 44 305 0.0 1.0 0.00 0.00 0.00 37 1014.2
20190325055020 44 0.0 1.0 0.00 0.00 0.00 37 1014.2
20190325054020 45 305 0.0 3.0 0.00 0.00 0.00 36 1014.2
20190325053020 45 305 0.0 5.0 0.00 0.00 0.00 36 1014.3
20190325052020 45 304 0.0 5.0 0.00 0.00 0.00 36 1014.4
20190325051019 46 310 0.0 6.0 0.00 0.00 0.00 35 1014.4
20190325050020 46 317 1.0 6.0 0.00 0.00 0.00 34 1014.5
20190325045019 46 319 0.0 5.0 0.00 0.00 0.00 34 1014.5
20190325044019 46 312 0.0 10.0 0.00 0.00 0.00 33 1014.6
20190325043020 47 305 1.0 10.0 0.00 0.00 0.00 33 1014.7
20190325042020 47 320 1.0 7.0 0.00 0.00 0.00 32 1014.6
20190325041020 47 308 1.0 7.0 0.00 0.00 0.00 32 1014.7
20190325040019 47 302 1.0 9.0 0.00 0.00 0.00 31 1014.6
20190325035018 48 293 2.0 9.0 0.00 0.00 0.00 31 1014.4
20190325034018 48 305 2.0 9.0 0.00 0.00 0.00 31 1014.2
20190325033018 48 313 1.0 8.0 0.00 0.00 0.00 32 1014.1
20190325032019 48 324 1.0 6.0 0.00 0.00 0.00 33 1014.0
20190325031018 48 292 1.0 7.0 0.00 0.00 0.00 33 1014.1
20190325030018 48 296 2.0 7.0 0.00 0.00 0.00 32 1014.1
20190325025015 49 306 1.0 7.0 0.00 0.00 0.00 32 1014.1
20190325024019 49 317 0.0 5.0 0.00 0.00 0.00 32 1014.2
20190325023018 49 318 0.0 7.0 0.00 0.00 0.00 32 1014.2
20190325022018 49 294 1.0 7.0 0.00 0.00 0.00 31 1014.1
20190325021018 50 276 1.0 6.0 0.00 0.00 0.00 31 1014.1
20190325020018 50 270 1.0 6.0 0.00 0.00 0.00 31 1014.1
20190325015018 50 282 1.0 6.0 0.00 0.00 0.00 29 1014.0
20190325014015 50 284 0.0 3.0 0.00 0.00 0.00 28 1014.0
20190325013018 51 284 0.0 2.0 0.00 0.00 0.00 27 1014.0
20190325012018 51 284 0.0 4.0 0.00 0.00 0.00 25 1013.9
20190325011018 52 284 0.0 5.0 0.00 0.00 0.00 25 1013.6
20190325010018 52 285 0.0 5.0 0.00 0.00 0.00 24 1013.6
20190325005018 52 299 0.0 6.0 0.00 0.00 0.00 23 1013.5
20190325004018 52 305 1.0 6.0 0.00 0.00 0.00 23 1013.4
20190325003018 52 301 0.0 5.0 0.00 0.00 0.00 23 1013.4
20190325002018 53 300 0.0 6.0 0.00 0.00 0.00 22 1013.4
20190325001018 53 301 1.0 6.0 0.00 0.00 0.00 22 1013.4
20190325000018 53 314 2.0 10.0 0.00 0.00 0.00 21 1013.3
20190324235018 53 312 2.0 10.0 0.00 0.00 0.00 21 1013.2
20190324234018 54 305 3.0 12.0 0.00 0.00 0.00 21 1013.2
20190324233018 54 296 4.0 12.0 0.00 0.00 0.00 19 1013.2
20190324232018 54 303 2.0 8.0 0.00 0.00 0.00 19 1013.1
20190324231018 54 298 2.0 8.0 0.00 0.00 0.00 19 1013.0
20190324230018 54 284 2.0 10.0 0.00 0.00 0.00 19 1012.8
20190324225018 54 275 2.0 12.0 0.00 0.00 0.00 19 1012.7
20190324224018 55 289 3.0 12.0 0.00 0.00 0.00 18 1012.7
20190324223018 55 283 2.0 12.0 0.00 0.00 0.00 18 1012.4
20190324222019 56 274 2.0 10.0 0.00 0.00 0.00 18 1012.3
20190324221018 56 292 2.0 12.0 0.00 0.00 0.00 17 1012.1
20190324220018 57 288 5.0 12.0 0.00 0.00 0.00 16 1012.2
20190324215018 57 283 1.0 10.0 0.00 0.00 0.00 17 1012.1
20190324214018 57 276 3.0 15.0 0.00 0.00 0.00 16 1012.1
20190324213018 57 293 4.0 15.0 0.00 0.00 0.00 16 1012.1
20190324212018 58 291 1.0 7.0 0.00 0.00 0.00 17 1012.0
20190324211018 58 265 2.0 10.0 0.00 0.00 0.00 17 1012.1
20190324210018 57 274 2.0 11.0 0.00 0.00 0.00 16 1012.4
20190324205018 57 285 4.0 11.0 0.00 0.00 0.00 15 1012.4
20190324204018 57 296 2.0 8.0 0.00 0.00 0.00 16 1012.6
20190324203018 57 281 2.0 11.0 0.00 0.00 0.00 16 1012.6
20190324202018 57 294 4.0 14.0 0.00 0.00 0.00 16 1012.7
20190324201019 58 291 3.0 14.0 0.00 0.00 0.00 17 1012.7
20190324200019 59 280 3.0 11.0 0.00 0.00 0.00 17 1012.6
20190324195018 58 273 3.0 11.0 0.00 0.00 0.00 15 1012.6
20190324194018 59 285 4.0 11.0 0.00 0.00 0.00 15 1012.6
20190324193018 59 292 3.0 12.0 0.00 0.00 0.00 18 1012.8
20190324192018 59 282 4.0 12.0 0.00 0.00 0.00 18 1012.9
20190324191018 59 280 3.0 13.0 0.00 0.00 0.00 18 1012.9
20190324190018 59 286 3.0 14.0 0.00 0.00 0.00 19 1013.2
20190324185015 59 288 3.0 14.0 0.00 0.00 0.00 16 1013.3
20190324184018 58 279 3.0 11.0 0.00 0.00 0.00 18 1013.4
20190324183018 57 276 2.0 13.0 0.00 0.00 0.00 19 1013.6
20190324182018 57 295 4.0 13.0 0.00 0.00 0.00 19 1013.7
20190324181018 56 290 3.0 11.0 0.00 0.00 0.00 19 1014.0
20190324180019 55 292 2.0 15.0 0.00 0.00 0.00 21 1014.3
20190324175018 55 292 3.0 15.0 0.00 0.00 0.00 23 1014.5
20190324174018 55 304 3.0 10.0 0.00 0.00 0.00 22 1014.6
20190324173018 54 284 4.0 13.0 0.00 0.00 0.00 23 1014.7
20190324172018 54 296 2.0 13.0 0.00 0.00 0.00 23 1015.0
20190324171018 54 308 4.0 10.0 0.00 0.00 0.00 25 1015.3
20190324170018 54 295 4.0 12.0 0.00 0.00 0.00 23 1015.4
20190324165018 54 299 3.0 12.0 0.00 0.00 0.00 25 1015.4
20190324164018 54 301 3.0 12.0 0.00 0.00 0.00 25 1015.3
20190324163018 53 315 4.0 12.0 0.00 0.00 0.00 24 1015.5
20190324162018 53 301 4.0 10.0 0.00 0.00 0.00 25 1015.6
20190324161018 53 305 3.0 10.0 0.00 0.00 0.00 25 1015.8